Weather History for KAOH - December, 2013

Change the Weather History Date:

Sunday, December 22, 2013

  Actual Average (KFDY) Record (KFDY)
Temperature  
Mean Temperature 45 °F -  
Max Temperature 55 °F 33 °F 61 °F (1949)
Min Temperature 35 °F 19 °F -18 °F (1989)
Degree Days  
Heating Degree Days 20    
Moisture  
Dew Point 35 °F    
Average Humidity 83    
Maximum Humidity 93    
Minimum Humidity 76    
Precipitation  
Precipitation 0.29 in - - ()
Sea Level Pressure  
Sea Level Pressure 29.74 in    
Wind  
Wind Speed 13 mph (WSW)    
Max Wind Speed 25 mph    
Max Gust Speed 33 mph    
Visibility 9 miles    
Events Rain    
Averages and records for this station are not official NWS values.
T = Trace of Precipitation, MM = Missing Value Source: NWS Daily Summary

Daily Weather History Graph

Daily Weather History Graph

Search for Another Location

Airport or City:

Trip Planner

Search our weather history database for the weather conditions in past years. The results will help you decide how hot, cold, wet, or windy it might be!

Date:

Astronomy

Dec. 22, 2013 Rise Set
Actual Time 7:57 AM EST 5:12 PM EST
Civil Twilight 7:26 AM EST 5:43 PM EST
Nautical Twilight 6:51 AM EST 6:18 PM EST
Astronomical Twilight 6:18 AM EST 6:51 PM EST
Moon 10:25 PM EST (12/22) 10:51 AM EST (12/22)
Length of Visible Light 10h 17m
Length of Day
9h 15m
Waning Gibbous, 77% of the Moon is Illuminated
Dec 22
Waning Gibbous
Dec 25
Last Quarter
Jan 1
New
Jan 7
First Quarter
Jan 15
Full

Hourly Weather History & Observations

Time (EST) Temp. Windchill Dew Point Humidity Pressure Visibility Wind Dir Wind Speed Gust Speed Precip Events Conditions
12:30 AM 37.4 °F 29.8 °F - N/A% 29.57 in 8.0 mi East 11.5 mph - 0.06 in Rain Rain
12:53 AM 37.9 °F 32.1 °F - N/A% 29.59 in 7.0 mi East 8.1 mph - 0.10 in Rain Light Rain
1:16 AM 37.4 °F 33.8 °F - N/A% 29.61 in 5.0 mi East 4.6 mph - 0.06 in Rain Rain
1:50 AM 37.4 °F 27.5 °F - N/A% 29.46 in 7.0 mi East 18.4 mph 25.3 mph 0.13 in Rain Rain
1:53 AM 37.9 °F 28.2 °F - N/A% 29.46 in 7.0 mi East 18.4 mph 25.3 mph 0.13 in Rain Light Rain
2:53 AM 46.9 °F - - N/A% 29.47 in 10.0 mi SE 13.8 mph - 0.01 in Rain Light Rain
3:06 AM 50.0 °F - - N/A% 29.46 in 10.0 mi SE 8.1 mph 18.4 mph 0.00 in   Overcast
3:53 AM 48.0 °F - - N/A% 29.48 in 10.0 mi North 9.2 mph - 0.00 in   Mostly Cloudy
4:33 AM 44.6 °F 41.4 °F - N/A% 29.49 in 10.0 mi SW 5.8 mph - 0.00 in Rain Light Rain
4:53 AM 45.0 °F 42.6 °F - N/A% 29.49 in 7.0 mi Variable 4.6 mph - 0.00 in Rain Light Rain
5:16 AM 48.2 °F - - N/A% 29.51 in 4.0 mi West 12.7 mph 26.5 mph 0.03 in Rain Rain
5:45 AM 46.4 °F 41.5 °F - N/A% 29.53 in 6.0 mi WSW 10.4 mph - 0.05 in Rain Light Rain
5:53 AM 46.0 °F 41.9 °F - N/A% 29.54 in 8.0 mi WSW 8.1 mph - 0.05 in Rain Light Rain
6:20 AM 48.2 °F - - N/A% 29.53 in 10.0 mi SW 9.2 mph - 0.00 in   Mostly Cloudy
6:38 AM 46.4 °F 42.4 °F - N/A% 29.55 in 10.0 mi WSW 8.1 mph - 0.00 in   Mostly Cloudy
6:53 AM 48.9 °F - - N/A% 29.57 in 10.0 mi SW 9.2 mph - 0.00 in   Overcast
7:53 AM 55.0 °F - - N/A% 29.62 in 10.0 mi SW 21.9 mph 31.1 mph N/A   Overcast
8:53 AM 51.1 °F - - N/A% 29.68 in 10.0 mi WSW 18.4 mph 28.8 mph N/A   Overcast
9:16 AM 50.0 °F - - N/A% 29.67 in 10.0 mi WSW 21.9 mph 27.6 mph N/A   Overcast
9:53 AM 48.0 °F - 46.0 °F 93% 29.71 in 10.0 mi WSW 17.3 mph - N/A   Overcast
10:53 AM 46.9 °F - 42.1 °F 83% 29.76 in 10.0 mi WSW 20.7 mph 29.9 mph N/A   Overcast
11:53 AM 45.0 °F 36.0 °F 39.9 °F 82% 29.78 in 10.0 mi WSW 25.3 mph 33.4 mph N/A   Overcast
12:53 PM 44.1 °F 35.2 °F 39.0 °F 82% 29.81 in 10.0 mi WSW 23.0 mph 28.8 mph N/A   Overcast
1:42 PM 44.6 °F 37.2 °F 37.4 °F 76% 29.80 in 10.0 mi SW 17.3 mph - N/A   Overcast
1:53 PM 45.0 °F 37.1 °F 37.9 °F 76% 29.81 in 10.0 mi SW 19.6 mph - N/A   Overcast
2:53 PM 44.1 °F 35.9 °F 37.9 °F 79% 29.83 in 10.0 mi WSW 19.6 mph 27.6 mph N/A   Overcast
3:53 PM 43.0 °F 35.1 °F 37.0 °F 80% 29.86 in 10.0 mi WSW 17.3 mph 26.5 mph N/A   Overcast
4:53 PM 42.1 °F 33.9 °F 37.0 °F 82% 29.89 in 10.0 mi SW 17.3 mph 24.2 mph N/A   Overcast
5:12 PM 42.8 °F 34.8 °F 35.6 °F 76% 29.89 in 10.0 mi SW 17.3 mph - N/A   Overcast
5:53 PM 41.0 °F 31.9 °F 35.1 °F 79% 29.91 in 10.0 mi WSW 19.6 mph 28.8 mph N/A   Overcast
6:53 PM 39.9 °F 32.1 °F 36.0 °F 86% 29.93 in 8.0 mi West 13.8 mph - N/A   Overcast
7:10 PM 39.2 °F 31.6 °F 35.6 °F 87% 29.93 in 6.0 mi WSW 12.7 mph - N/A   Overcast
7:53 PM 37.9 °F 29.2 °F 35.1 °F 89% 29.96 in 6.0 mi West 15.0 mph - N/A   Overcast
8:40 PM 37.4 °F 28.5 °F 33.8 °F 87% 29.95 in 9.0 mi West 15.0 mph - N/A   Overcast
8:51 PM 37.4 °F 29.3 °F 33.8 °F 87% 29.97 in 9.0 mi West 12.7 mph - N/A   Overcast
8:53 PM 37.0 °F 28.5 °F 33.1 °F 86% 29.99 in 9.0 mi West 13.8 mph - N/A   Overcast
9:24 PM 35.6 °F 27.1 °F 32.0 °F 87% 29.97 in 10.0 mi WSW 12.7 mph - N/A   Overcast
9:53 PM 36.0 °F 28.5 °F 30.9 °F 82% 29.98 in 10.0 mi WSW 10.4 mph - N/A   Overcast
10:06 PM 35.6 °F 27.5 °F 30.2 °F 81% 29.97 in 10.0 mi WSW 11.5 mph - N/A   Overcast
10:17 PM 35.6 °F 26.6 °F 32.0 °F 87% 29.97 in 10.0 mi WSW 13.8 mph - N/A   Overcast
10:53 PM 36.0 °F 28.0 °F 30.9 °F 82% 29.99 in 10.0 mi WSW 11.5 mph - N/A   Overcast
11:25 PM 35.6 °F 26.6 °F 30.2 °F 81% 29.99 in 10.0 mi WSW 13.8 mph - 0.00 in   Overcast
11:53 PM 35.1 °F 27.9 °F 32.0 °F 89% 30.02 in 10.0 mi WSW 9.2 mph - 0.00 in   Overcast